Theta_e
303 302 302 301 301 301 301 301 301 301 302 302 302 303 303 304 305 306 301 306 301 292 293 296 296 292 294 292 287 292 290 292 290 289 289 289 287 290 289 293 289 290 295 294 298 293 289 307 307 299 306 308 305 305
302 302 301 301 301 301 301 301 301 302 302 302 302 302 303 304 305 305 300 306 307 295 294 302 302 303 302 300 294 292 291 289 290 289 291 289 288 291 289 286 295 292 297 295 293 291 302 310 310 313 311 307 302 301
302 301 301 300 300 300 301 301 301 301 301 302 302 302 303 304 304 304 302 303 301 295 296 301 301 306 306 304 305 292 293 294 294 295 290 291 287 291 287 290 295 299 303 295 295 295 301 307 312 312 308 304 301 301
302 301 300 300 300 300 301 301 301 301 301 301 302 303 303 304 304 304 302 303 300 295 289 298 306 304 308 306 303 302 299 298 296 295 290 290 289 295 290 289 293 294 298 293 292 295 298 302 305 305 304 303 301 302
301 300 300 300 300 300 300 300 301 301 301 301 302 303 304 304 304 304 304 304 305 295 290 293 301 306 306 305 302 303 300 295 293 292 292 291 293 292 293 293 289 292 295 295 290 296 296 298 303 304 301 299 300 298
300 300 299 299 300 300 300 300 300 300 301 301 302 303 304 304 304 304 300 308 308 302 293 288 302 303 305 306 304 304 302 297 296 294 293 294 297 294 290 287 290 294 296 298 292 295 295 296 300 302 301 300 298 297
300 299 298 299 300 300 300 300 300 300 301 301 303 303 304 305 307 301 300 304 304 304 294 289 292 303 306 305 305 305 304 300 297 293 292 294 294 296 290 286 289 293 294 294 295 294 291 293 291 295 295 294 295 294
298 298 299 299 299 299 300 300 300 300 301 302 304 303 303 305 305 303 307 306 307 301 298 289 293 298 305 299 298 303 298 300 296 294 295 293 294 293 287 285 291 293 293 293 293 293 293 294 295 294 296 295 295 294
298 298 298 299 299 299 299 300 300 300 301 303 302 303 307 305 304 304 305 306 307 300 291 291 290 290 303 299 301 300 300 291 298 291 293 294 289 285 287 291 293 296 293 292 294 295 296 296 297 297 296 296 294 294
298 298 298 298 298 299 299 299 300 301 303 302 303 301 299 304 303 305 303 299 298 298 297 292 298 290 298 298 297 295 297 293 290 293 298 290 287 294 296 299 300 300 299 297 294 293 294 294 294 295 295 295 294 293
297 297 298 298 298 299 299 299 299 301 303 302 299 298 303 305 304 301 297 296 299 295 299 298 297 294 302 293 293 297 293 294 289 291 291 288 286 292 298 299 301 302 302 301 300 298 297 296 294 293 294 294 294 294
297 298 298 298 298 299 299 299 299 301 299 298 297 299 299 300 297 292 293 296 294 291 297 295 297 299 299 302 296 296 292 293 287 296 292 287 289 297 297 297 298 298 299 299 299 297 297 297 296 296 295 295 295 294
297 297 297 298 298 299 299 299 301 301 301 300 296 293 296 296 288 287 282 291 293 295 295 296 295 299 301 301 297 295 291 289 296 291 288 288 294 297 299 299 299 300 299 299 298 298 298 297 297 297 296 296 296 294
297 297 297 298 298 299 299 300 300 300 297 294 290 286 292 289 293 293 293 292 297 296 296 298 296 297 300 297 297 290 294 295 288 287 285 294 296 299 300 300 299 299 300 300 299 299 298 297 297 297 297 297 296 294
297 297 298 298 298 298 299 299 300 301 298 291 292 288 291 298 299 299 299 297 300 298 298 297 298 300 298 295 297 294 290 286 288 288 289 296 300 300 300 299 299 300 301 300 300 299 298 297 297 297 298 298 297 295
297 297 299 298 298 298 299 300 300 299 298 292 292 293 298 297 295 297 298 297 302 300 300 299 294 293 291 293 290 287 287 285 288 292 295 298 299 302 297 300 301 302 302 302 300 299 298 298 298 298 299 298 297 296
296 298 296 297 298 298 300 298 299 294 295 292 293 299 298 299 298 296 298 301 305 300 293 293 288 289 294 291 288 291 289 291 293 295 298 301 298 297 302 302 300 301 302 302 301 300 300 300 300 299 297 298 299 297
296 300 296 298 299 298 300 299 296 296 291 295 294 297 299 300 299 301 303 304 301 297 295 292 295 290 287 286 289 294 293 293 295 298 301 300 299 299 300 300 301 303 303 302 301 301 301 300 300 299 300 300 299 297
299 299 300 299 299 296 294 296 299 292 294 298 298 299 299 301 303 304 301 302 301 300 299 295 291 291 291 296 295 296 294 293 294 297 302 303 303 301 300 301 304 304 303 302 301 300 301 301 301 301 301 300 298 297
299 299 298 300 299 296 290 295 302 295 293 296 299 298 299 300 304 305 303 304 301 298 293 293 293 296 297 300 301 301 298 297 297 296 298 301 303 304 304 303 304 304 303 303 302 298 301 300 301 301 301 299 298 297
297 299 299 300 297 297 295 296 294 297 298 295 300 298 299 301 300 299 300 299 295 294 294 296 296 298 302 303 304 302 301 299 300 299 299 300 304 304 303 304 304 303 302 301 300 299 297 299 300 300 299 299 299 298
297 297 297 299 295 295 293 299 296 299 297 298 296 298 296 296 298 299 299 294 293 295 298 298 298 298 300 300 302 304 303 303 302 298 296 297 302 302 302 303 302 301 301 300 300 299 300 300 300 299 299 298 297 298
297 297 296 295 291 290 292 302 294 296 291 293 298 294 295 297 300 302 294 296 296 299 298 300 302 301 301 302 302 304 304 300 301 301 300 303 304 304 304 304 303 301 300 300 301 300 300 294 296 299 299 298 298 297
297 292 289 289 292 288 295 293 296 294 294 294 293 291 295 293 298 295 292 295 297 299 301 300 302 303 303 302 302 303 304 304 302 302 302 302 302 302 303 302 302 302 302 301 301 300 300 300 296 299 299 298 298 298
287 287 289 286 291 288 288 289 291 291 289 292 291 292 295 298 294 292 292 295 297 297 298 301 303 305 304 304 303 304 307 305 301 300 302 304 303 303 302 302 302 303 303 300 299 300 300 300 300 300 299 299 299 298
283 288 285 288 290 288 290 287 288 289 292 291 293 297 299 296 290 289 294 297 298 299 300 300 301 302 303 305 305 304 304 308 306 303 304 304 302 300 299 299 299 300 303 302 301 300 299 300 300 299 299 297 289 297
281 285 292 296 291 293 292 293 294 290 291 290 295 293 293 288 288 294 299 301 300 301 303 304 304 302 302 303 305 306 308 310 307 307 308 306 305 305 304 301 299 301 304 303 302 301 300 299 299 299 299 299 299 298
288 289 286 291 292 295 290 292 291 290 292 299 297 289 288 290 292 301 302 303 303 304 304 305 307 307 305 304 305 306 308 309 309 309 308 307 306 305 305 305 305 291 304 304 303 303 303 302 301 301 300 299 299 299
287 292 292 290 291 292 292 292 293 296 297 299 295 294 295 300 303 303 303 303 304 304 303 302 303 306 307 306 307 304 306 306 303 301 300 298 299 301 305 305 305 305 305 304 287 293 302 302 302 301 300 299 299 299
289 294 291 289 289 290 296 300 299 301 300 299 300 301 301 300 303 306 303 302 300 301 302 302 303 302 303 301 301 303 304 306 304 302 300 300 302 304 304 305 305 305 305 304 302 298 285 296 293 299 298 298 297 296
295 294 291 292 291 297 299 302 302 301 298 297 299 298 297 301 303 305 304 304 301 301 301 301 301 302 303 299 299 299 301 305 305 304 305 305 304 304 304 304 305 304 303 302 300 300 299 298 298 297 296 295 294 293
293 291 291 287 292 299 301 298 297 297 296 293 294 298 297 297 295 300 303 303 303 300 294 300 301 301 301 298 298 299 287 301 304 306 303 304 304 304 303 302 302 302 301 300 300 299 299 297 296 295 294 293 293 294
293 293 293 293 293 292 297 297 295 294 295 295 295 296 295 294 292 298 301 301 301 301 301 299 300 295 298 294 294 297 293 297 289 284 286 287 288 293 300 300 300 300 299 298 298 297 296 295 294 294 293 292 291 293
Wind_Speed
12 10 9 10 10 11 12 13 14 16 17 18 18 17 17 18 17 10 8 9 5 4 14 9 10 13 14 9 4 11 8 3 4 6 5 5 4 4 5 5 1 2 2 3 2 6 7 12 4 3 10 21 22 19
11 9 8 9 10 12 13 13 15 16 16 17 18 18 18 18 17 15 5 5 3 5 11 22 24 22 22 21 11 2 5 4 3 3 5 4 3 4 5 3 6 3 6 4 7 4 6 3 8 16 19 25 21 22
10 9 8 8 9 12 13 13 15 17 17 17 18 19 18 18 16 12 5 5 3 4 12 7 6 6 7 10 11 5 3 3 3 3 3 3 4 2 4 3 3 3 8 5 2 8 12 11 17 18 22 23 21 22
12 10 8 8 10 11 14 13 15 16 17 18 18 19 19 18 17 13 5 4 3 4 5 5 8 14 11 8 12 15 13 7 5 3 4 4 3 2 2 5 6 6 8 5 7 9 15 15 18 22 24 25 24 25
12 10 8 8 11 12 12 14 18 19 18 20 20 20 20 20 16 10 7 6 7 3 4 9 22 7 8 7 11 13 11 11 3 4 4 2 2 3 3 2 5 9 5 3 4 9 10 9 15 23 25 25 24 25
12 10 5 9 12 13 13 14 17 19 19 21 22 22 22 20 12 3 3 4 3 3 4 5 8 10 15 15 8 4 6 5 4 2 2 2 3 3 3 4 9 10 9 6 6 16 18 17 15 21 27 27 24 20
12 7 9 10 11 12 14 15 18 20 20 22 23 23 22 17 6 4 5 5 3 2 3 5 7 4 12 13 4 3 2 1 2 1 2 2 4 4 4 4 10 9 14 16 16 19 18 14 15 18 26 26 24 22
10 10 10 8 10 12 14 16 18 20 21 23 23 21 13 0 2 4 3 4 1 4 2 4 7 9 6 9 6 5 4 2 4 3 2 3 3 3 6 5 4 13 17 18 21 18 23 19 18 18 21 22 25 22
11 10 9 10 11 12 14 16 18 20 21 22 19 13 6 5 3 3 9 5 3 3 3 2 6 7 10 10 5 4 3 3 3 4 5 3 5 8 4 2 4 5 14 19 20 17 18 22 23 22 23 23 23 20
9 9 8 10 10 12 13 14 17 20 23 18 6 4 3 3 8 6 3 3 4 3 3 3 4 5 8 8 4 7 4 4 5 6 3 5 5 10 10 15 17 20 20 17 22 21 20 21 20 20 20 18 18 18
8 9 9 9 10 12 13 14 15 20 11 3 4 3 6 6 2 3 3 3 1 3 3 3 6 9 3 6 5 4 3 5 4 6 4 4 4 8 10 13 11 14 17 19 19 20 19 20 18 19 19 18 17 17
8 8 7 9 11 12 12 12 14 8 5 8 7 5 4 4 4 4 1 2 3 3 5 7 9 7 4 2 3 4 3 3 5 6 3 4 2 6 11 12 15 15 18 19 18 20 19 19 18 18 17 17 17 16
8 7 8 9 11 12 13 12 9 10 12 1 3 3 3 2 2 3 1 1 1 5 5 8 9 4 3 2 3 3 5 5 1 3 3 2 4 3 11 12 15 17 18 19 19 18 19 19 18 18 17 16 16 15
8 8 10 11 11 11 5 7 8 6 4 3 2 3 4 3 1 1 3 2 3 3 7 8 5 3 3 3 2 4 3 2 3 3 4 2 6 6 10 12 15 17 17 18 18 18 18 18 17 17 16 15 15 14
8 10 11 13 4 3 8 10 8 4 3 3 3 4 3 2 1 2 2 4 2 3 6 6 4 2 1 2 2 3 2 3 4 3 1 4 8 8 11 13 14 15 14 14 15 15 16 16 15 16 15 14 14 13
8 12 4 3 6 9 11 9 2 3 3 3 4 4 1 2 1 2 2 2 0 3 4 4 4 2 2 4 2 3 2 3 2 1 2 3 6 10 6 8 13 13 14 14 14 14 15 15 15 15 15 13 13 13
7 3 4 4 10 13 7 3 3 4 4 4 4 4 4 3 1 2 3 1 1 2 2 3 3 4 3 2 3 3 3 3 3 4 4 5 7 7 11 12 12 12 13 14 14 14 15 15 14 13 13 12 12 12
4 1 1 7 9 5 2 3 3 4 6 5 4 3 3 3 3 3 2 1 2 2 2 2 3 1 0 3 2 3 3 3 3 4 3 8 9 6 6 10 14 13 14 13 13 14 14 13 12 10 12 11 11 10
6 8 11 10 6 3 3 5 4 4 4 2 4 3 4 2 2 2 2 1 1 1 4 2 2 2 2 2 2 2 3 2 2 2 5 10 12 9 7 10 11 12 13 13 13 9 9 9 9 8 8 8 8 7
12 10 6 5 6 2 3 3 3 4 3 2 3 4 4 3 1 2 1 2 2 1 1 2 2 3 2 2 1 1 3 1 1 5 7 6 6 11 12 11 9 11 10 11 9 8 8 7 7 7 7 6 8 8
3 1 2 4 2 3 3 2 4 3 2 4 0 3 2 3 4 2 1 2 1 2 1 2 3 2 3 3 3 3 5 3 1 3 5 8 7 8 8 8 10 9 9 9 9 8 7 7 7 8 8 7 8 7
0 1 1 2 3 3 3 3 4 1 4 1 3 3 4 4 3 2 4 2 1 1 2 0 2 2 2 1 3 7 5 7 3 2 4 7 8 8 8 8 8 9 8 8 8 8 7 8 8 8 8 8 7 8
3 3 2 3 2 2 3 2 5 3 3 2 3 4 3 2 3 3 2 2 1 2 1 4 3 3 4 2 4 6 7 7 3 2 7 6 6 7 8 8 8 8 7 7 7 7 7 9 7 8 8 8 7 8
2 2 3 2 3 3 2 4 3 3 3 4 3 3 3 3 1 2 3 2 3 2 3 5 4 3 3 7 5 7 8 8 6 3 4 5 6 7 7 8 6 6 6 7 6 7 9 9 9 7 8 7 7 7
2 2 2 3 4 4 4 4 5 4 4 4 3 3 4 4 3 3 3 3 4 3 1 2 3 1 1 4 5 6 4 4 5 6 4 5 7 7 7 5 4 5 5 7 7 8 8 8 8 7 8 7 7 7
3 4 4 3 3 4 1 2 1 2 3 3 2 2 2 2 2 5 3 3 2 1 1 1 1 1 2 3 1 4 6 3 4 5 6 7 8 8 8 8 8 6 7 7 9 9 9 8 8 8 8 8 3 6
2 4 4 3 2 4 3 3 2 3 4 1 2 2 2 1 4 4 3 3 3 4 3 2 1 1 1 1 2 2 3 3 5 2 2 5 7 8 8 8 9 8 9 9 8 9 9 9 9 9 8 8 9 8
3 2 3 4 4 3 3 1 3 3 1 2 2 3 1 3 3 2 3 4 4 3 4 4 2 1 2 2 2 3 2 3 4 4 3 4 4 5 6 6 6 6 4 7 8 8 9 9 9 9 9 9 8 7
4 3 4 6 4 4 3 2 1 3 3 2 0 2 3 4 2 3 4 2 1 1 1 1 0 1 1 4 4 3 5 3 7 8 11 9 8 7 7 7 7 6 5 5 3 3 6 6 8 7 7 7 6 6
4 4 4 4 4 3 2 1 2 4 3 3 2 2 3 3 2 2 1 1 2 3 1 1 2 5 3 2 4 5 5 6 4 3 7 9 10 8 8 7 6 5 5 6 7 6 4 5 6 6 7 7 7 6
2 4 3 3 2 1 3 2 3 5 2 1 1 2 3 2 3 2 3 2 0 1 2 2 2 2 1 1 1 5 6 3 5 3 1 3 4 5 5 5 5 5 6 7 8 8 9 8 7 8 9 8 9 7
4 5 2 3 2 1 2 4 4 2 2 2 3 1 2 2 1 2 3 4 3 2 1 2 2 2 3 2 3 2 0 3 2 2 3 3 5 6 6 6 6 6 6 7 6 6 7 7 7 7 8 11 12 9
3 3 3 2 2 3 2 2 3 3 3 3 3 3 2 0 2 2 2 3 2 3 4 3 3 3 4 3 3 2 3 5 6 7 7 8 7 6 6 6 7 8 10 9 8 8 9 10 9 10 9 7 5 4
Wind_Direction
227 243 266 284 296 301 305 313 317 320 319 322 324 321 321 318 321 320 289 284 264 256 287 267 273 273 281 280 276 315 320 58 296 347 350 346 318 339 306 351 344 300 280 13 317 112 109 355 216 113 107 113 123 121
223 239 256 282 298 303 309 313 313 314 319 322 321 318 317 316 318 321 279 318 258 236 270 296 280 270 263 264 278 260 269 301 290 319 8 314 301 312 339 307 234 342 9 55 28 37 302 358 76 118 126 124 118 117
217 237 261 277 294 300 303 311 317 317 321 321 319 312 312 312 314 313 288 296 263 270 287 264 276 254 254 251 229 260 251 229 267 50 303 287 281 331 306 317 341 64 31 57 130 9 56 62 91 102 114 115 116 114
205 222 243 270 285 293 297 306 306 306 311 317 315 311 310 310 312 304 275 283 254 275 281 294 308 298 307 272 230 225 261 269 277 237 228 258 276 355 314 293 11 356 318 69 89 86 65 76 96 109 114 113 113 113
203 213 235 261 277 288 297 308 311 312 315 317 315 311 313 314 311 292 269 248 231 244 289 297 300 279 308 278 267 255 242 251 262 240 219 256 285 291 251 21 27 338 336 345 61 64 92 83 107 116 109 108 111 116
198 218 244 272 282 293 307 313 309 309 316 319 314 313 314 311 309 293 242 156 189 193 285 299 332 294 312 334 318 234 215 234 230 313 346 303 261 260 29 61 347 356 52 39 92 80 78 74 77 102 105 106 105 107
200 195 237 266 287 299 304 310 310 312 318 315 311 312 312 302 223 243 1 8 51 218 264 287 288 272 324 311 352 16 233 277 330 339 279 287 26 34 28 41 338 57 82 92 95 98 76 74 87 96 103 101 102 99
188 225 249 266 284 297 305 308 309 314 316 312 311 311 304 145 197 224 159 312 204 265 238 291 291 305 27 336 337 56 323 23 3 350 321 357 43 61 57 350 30 81 80 80 83 84 96 101 102 105 102 108 104 101
213 238 263 284 290 301 307 309 313 315 312 312 314 312 223 230 235 60 338 255 254 289 305 287 311 327 333 338 326 357 332 6 311 16 32 32 30 38 341 314 143 89 99 106 96 107 114 111 108 106 105 102 102 103
223 245 264 275 292 306 308 313 318 318 315 307 277 240 213 70 338 290 171 217 194 197 222 259 292 303 321 339 332 354 355 8 8 24 19 45 71 48 72 95 103 112 112 112 109 110 111 104 103 102 98 99 101 104
225 248 266 287 305 307 308 314 325 324 285 331 341 322 348 325 270 252 258 245 200 227 207 264 319 327 336 327 329 9 337 347 16 9 30 50 44 28 61 83 80 94 101 101 103 103 107 111 113 108 106 105 106 105
239 261 283 294 296 300 300 314 320 312 336 324 300 296 283 254 225 259 263 324 237 356 341 330 337 331 324 329 291 1 345 23 35 322 43 61 5 48 87 89 98 96 98 100 104 108 109 109 110 109 107 104 103 105
250 267 279 287 295 296 301 302 312 322 298 214 229 244 232 199 306 213 204 188 318 4 350 328 338 339 302 256 286 327 358 38 233 14 61 78 121 93 98 106 105 108 108 108 108 105 106 108 106 106 109 109 110 107
264 278 285 288 287 295 326 336 335 321 293 260 279 269 247 203 212 332 23 325 18 328 318 335 300 337 338 311 355 325 47 285 34 38 59 91 126 126 111 119 118 113 112 110 111 114 113 112 111 110 109 109 109 107
277 281 285 286 242 317 329 324 315 266 247 258 235 249 209 52 94 336 310 287 22 322 304 316 268 269 341 294 15 332 82 71 19 40 21 18 147 115 117 117 118 116 115 110 110 110 112 113 113 112 111 109 108 109
288 286 222 160 339 331 322 308 227 214 242 243 236 254 175 253 251 242 240 350 309 282 288 276 301 313 39 349 39 25 358 61 49 12 357 356 128 126 111 133 129 122 121 118 118 118 120 122 122 121 120 118 113 110
277 252 132 288 313 306 302 246 206 224 270 223 229 220 258 306 282 263 278 338 313 290 11 277 303 9 310 284 73 13 41 350 320 301 287 154 125 132 167 139 132 132 124 124 126 127 118 121 126 127 123 120 116 108
265 104 245 304 313 318 201 218 248 248 242 237 250 141 233 274 292 259 262 255 338 17 295 6 286 283 312 334 47 84 32 321 304 279 127 122 122 112 119 143 145 141 131 127 126 130 132 134 136 127 127 124 118 118
305 317 313 297 278 311 261 196 229 261 250 277 253 240 255 273 236 313 320 357 133 280 300 287 280 336 56 74 60 55 78 324 316 36 96 126 127 128 128 149 143 133 138 133 139 143 137 148 122 140 135 156 138 142
279 284 277 307 203 246 244 212 229 268 270 49 252 233 248 284 81 160 8 105 171 139 200 252 6 13 331 340 331 6 89 306 288 113 114 136 140 149 156 152 140 137 140 144 137 126 134 138 144 146 153 136 143 138
271 79 350 186 207 267 276 267 221 262 303 256 175 255 237 205 219 207 123 124 196 270 176 56 11 305 273 281 231 199 156 199 100 107 157 149 152 132 140 129 150 149 150 150 160 145 178 144 138 124 147 143 130 140
255 263 238 198 249 209 261 235 284 325 252 307 245 228 237 215 178 150 112 88 320 70 345 284 137 275 248 238 182 178 169 134 90 108 119 135 148 150 150 154 157 159 161 161 150 161 142 139 143 145 139 128 145 133
245 193 232 224 262 230 257 206 247 206 245 222 212 220 192 176 75 127 89 95 43 81 303 287 5 244 266 79 145 161 146 135 135 161 157 154 143 146 152 161 158 150 146 148 151 154 146 130 149 156 138 163 154 144
206 243 248 233 232 264 230 223 203 247 247 233 222 207 127 64 218 210 118 126 124 226 266 307 295 269 138 131 131 144 154 159 151 134 128 143 145 145 153 152 152 164 151 149 156 152 145 167 148 174 167 175 181 183
225 205 214 230 220 243 226 215 189 221 233 197 226 156 123 203 184 136 92 97 159 216 283 299 288 242 332 106 119 123 155 147 151 158 175 209 167 158 156 139 133 151 142 157 159 161 161 159 183 190 191 195 192 197
240 186 202 218 169 235 229 224 267 264 264 210 171 118 184 213 103 72 69 76 64 58 103 168 115 199 88 38 59 138 149 193 145 144 160 160 165 161 169 176 174 166 189 182 169 176 176 182 190 194 195 176 135 198
242 224 189 208 281 264 225 100 180 257 262 193 129 158 207 112 79 83 121 115 98 90 81 81 102 100 72 64 68 63 298 223 242 31 126 178 179 192 191 185 193 183 172 189 180 188 191 191 196 197 196 186 181 197
264 269 221 171 232 236 286 202 204 184 296 292 220 176 115 50 80 98 102 121 92 105 94 96 68 122 177 224 243 267 260 180 155 188 179 174 168 185 195 190 120 84 173 188 198 198 202 200 201 194 200 202 188 188
229 205 225 224 219 220 241 278 114 107 253 283 235 79 74 56 70 120 102 82 342 289 258 108 20 197 215 276 209 177 274 210 194 195 198 180 175 180 191 190 164 183 189 173 101 340 218 200 194 198 197 197 186 182
205 191 227 210 226 210 121 349 92 124 76 27 27 136 132 115 72 80 25 271 231 214 195 2 308 291 346 331 264 217 192 237 243 236 200 202 194 183 174 190 190 187 178 185 172 143 101 139 133 152 163 165 172 172
193 191 232 224 239 85 75 64 119 103 105 93 337 352 29 95 131 57 21 50 218 193 221 251 291 327 352 31 300 249 179 192 188 212 24 105 136 154 169 171 167 155 161 164 168 171 164 175 174 176 175 169 166 174
195 215 224 213 188 127 243 211 184 154 140 180 184 181 140 235 117 85 22 292 180 104 106 337 356 30 49 25 326 327 334 333 233 205 182 144 119 135 142 131 130 135 144 145 149 149 159 157 154 160 165 158 151 147
207 206 224 269 232 223 200 244 181 155 186 206 196 175 170 156 117 101 71 30 21 359 29 44 38 11 353 42 325 351 14 56 57 31 42 54 71 94 119 121 127 131 127 119 118 124 128 138 140 135 119 117 143 178